Regional Weather Roundup
Issued by NWS Green Bay, WI

Home | Current Version | Previous Version | Text Only | Print | Product List | Glossary On
Versions: 1 2 3 4 5 6 7 8 9 10 11 12 13 14 15 16 17 18 19 20 21 22 23 24 25 26 27 28 29 30 31 32 33 34 35 36 37 38 39 40 41 42 43 44 45 46 47 48 49 50
000
ASUS43 KGRB 071600
RWRGRB

NORTH-CENTRAL AND NORTHEAST WISCONSIN REGIONAL WEATHER ROUNDUP
NATIONAL WEATHER SERVICE GREEN BAY WI
1000 AM CST SUN FEB 07 2016

WIZ005-009-010>012-018-019-071700-
NORTH CENTRAL WISCONSIN

CITY           SKY/WX    TMP DP  RH WIND       PRES   REMARKS
IRONWOOD       CLOUDY    34  30  86 SW9       29.46S
MANITOWISH WTR NOT AVBL
ARBOR VITAE    NOT AVBL
EAGLE RIVER    NOT AVBL
LAND O LAKES   NOT AVBL
RHINELANDER    CLOUDY    31  28  89 SW13      29.53F
PHILLIPS       NOT AVBL
ANTIGO         NOT AVBL
TOMAHAWK       NOT AVBL
MERRILL        NOT AVBL
$$

WIZ013-073-071700-
NORTHEAST WISCONSIN

CITY           SKY/WX    TMP DP  RH WIND       PRES   REMARKS
IRON MOUNTAIN  CLOUDY    31  28  89 S8        29.54F FOG
MARINETTE      PTSUNNY   37  30  75 SW10      29.60F
$$

WIZ017-030-035>037-045-071700-
CENTRAL WISCONSIN

CITY           SKY/WX    TMP DP  RH WIND       PRES   REMARKS
MEDFORD        NOT AVBL
WAUSAU         CLOUDY    34  28  79 SW10      29.57F
MOSINEE        CLOUDY    32  30  93 SW10      29.60F
MARSHFIELD     CLOUDY    35  27  72 W14       29.58S
WISC RAPIDS    SUNNY     37  27  67 SW12      29.63F
STEVENS POINT  NOT AVBL
WAUPACA        NOT AVBL
SHAWANO        NOT AVBL
CLINTONVILLE   NOT AVBL
WAUTOMA        NOT AVBL
$$

WIZ038-039-048-051-071700-
FOX VALLEY

CITY           SKY/WX    TMP DP  RH WIND       PRES   REMARKS
NWS GREEN BAY  SUNNY     37  30  75 SW12      29.63F
APPLETON       MOSUNNY   37  28  70 S14       29.62F
OSHKOSH        SUNNY     37  29  72 SW10      29.65F
FOND DU LAC    SUNNY     38  29  70 SW13      29.66F
$$

WIZ022-050-052-071700-
EAST CENTRAL WISCONSIN

CITY           SKY/WX    TMP DP  RH WIND       PRES   REMARKS
EPHRAIM        NOT AVBL
STURGEON BAY   CLOUDY    36  28  75 S12       29.65F
MANITOWOC      NOT AVBL
SHEBOYGAN      SUNNY     38  29  70 SW14      29.66F
$$

LMZ563-521-522-541>543-071700-
LAKESHORE

STATION/POSITION TIME  TEMP    WIND        PRES    VSBY  WAVE
                       AIR SEA DIR/SP/G                  HT/PER
                 (UTC) (F)     (DEG/KT/KT) (MB)    (MI)  (FT/S)
SHEBOYGAN LKSHOR 1500   39     220/ 15/ 18 1006.0F
KEWAUNEE LKSHORE 1500   35     200/  7/  8 1004.0F
ALGOMA MARINA    1511          220/ 10/ 11   N/A
NORTHPORT PIER   1500   37     160/  4/ 11 1004.1
CHAMBERS ISLAND  1500   36     180/  8/ 13 1004.4F
MENOMINEE LKSHOR 1500   36     190/ 10     1002.6F
$$



USA.gov is the U.S. government's official web portal to all federal, state and local government web resources and services.